Location: Banios
(43.0451°N, 0.2335°E)
Time: 17:39:44
(UTC+00:00)

A-11 Canister half - Pass Details

Date: 07 December 2021
Orbit: 1516 x 1684 km, 47.2° (Epoch: 22 January)

Event Time Altitude Azimuth Distance (km) Brightness Sun altitude
Rises 06:02:32 0° 231° (SW) 4,719 11.2 -13.1°
Reaches altitude 10° 06:05:34 10° 229° (SW) 3,757 10.8 -12.6°
Maximum altitude 06:15:03 70° 148° (SSE) 1,694 9.4 -11.0°
Drops below altitude 10° 06:24:55 10° 67° (ENE) 3,900 11.8 -9.3°
Sets 06:28:07 0° 66° (ENE) 4,906 12.3 -8.8°
